Home > Weather > Bălți > Past weeks

Flag for Moldova Weather for the Past 2 Weeks in Bălți, Moldova

Now
36 °F

Chilly.


Feels Like: 28 °F
Forecast: 37 / 52 °F
Wind: 10 mph from Southeast

Location: Baltsi-Leadoveni - The North of Moldova

Current Time: Feb 13, 2016 at 9:15:17 AM

Latest Report: Feb 13, 2016 at 9:00 AM


Visibility: N/A

Pressure: 29.77 "Hg

Humidity: 93%

Dew point: 34 °F

Location of BălțiLocation

Historic Weather in Bălți — Graph

°F

Bălți Temperature Yesterday

Maximum temperature yesterday: 48 °F (at 2:00 PM)
Minimum temperature yesterday: 32 °F (at 7:00 AM)
Average temperature yesterday: 39 °F

High & Low Weather Summary for the Past Weeks

 TemperatureHumidityPressure
High50 °F (Feb 3, 2:30 PM)100% (Jan 30, 1:00 AM)30.33 "Hg (Jan 30, 1:00 AM)
Low25 °F (Feb 7, 5:30 AM)43% (Feb 12, 2:00 PM)29.36 "Hg (Feb 11, 2:00 AM)
Average37 °F81%29.99 "Hg
* Reported Jan 29 8:00 AM — Feb 13 8:00 AM, Bălți, Weather by CustomWeather, © 2016

Note: Actual official high and low records may vary slightly from our data, if they occured in-between our weather recording intervals... More about our weather records

Advertising

Bălți Weather History for the Previous 24 Hours

 ConditionsComfort  
Time TempWeatherWind HumidityBarometerVisibility
8:00 AM
Sat, Feb 13
34 °FChilly.10 mph93%29.77 "HgN/A
7:30 AM34 °FChilly.10 mph93%29.77 "HgN/A
7:00 AM34 °FChilly.9 mph93%29.80 "HgN/A
6:00 AM34 °FChilly.7 mph93%29.80 "HgN/A
5:30 AM34 °FChilly.7 mph93%29.80 "HgN/A
5:00 AM34 °FChilly.12 mph93%29.80 "HgN/A
4:30 AM32 °FChilly.9 mph93%29.80 "HgN/A
4:00 AM32 °FChilly.9 mph93%29.80 "HgN/A
3:30 AM34 °FChilly.10 mph87%29.80 "HgN/A
3:00 AM34 °FChilly.10 mph87%29.83 "HgN/A
2:00 AM34 °FChilly.9 mph87%29.83 "HgN/A
1:30 AM34 °FChilly.9 mph87%29.86 "HgN/A
1:00 AM34 °FChilly.9 mph87%29.86 "HgN/A
12:00 AM36 °FChilly.9 mph81%29.86 "HgN/A
11:30 PM
Fri, Feb 12
36 °FChilly.8 mph81%29.86 "HgN/A
11:00 PM36 °FChilly.9 mph81%29.86 "HgN/A
10:30 PM37 °FChilly.10 mph75%29.86 "HgN/A
10:00 PM37 °FChilly.9 mph75%29.86 "HgN/A
9:30 PM37 °FChilly.9 mph70%29.89 "HgN/A
9:00 PM37 °FChilly.8 mph75%29.89 "HgN/A
8:30 PM39 °FChilly.8 mph70%29.89 "HgN/A
8:00 PM39 °FChilly.7 mph70%29.89 "HgN/A
7:30 PM41 °FQuite cool.8 mph66%29.89 "HgN/A
7:00 PM39 °FChilly.6 mph70%29.89 "HgN/A
6:30 PM41 °FQuite cool.5 mph66%29.89 "HgN/A
6:00 PM41 °FQuite cool.3 mph61%29.89 "HgN/A
5:30 PM45 °FQuite cool.5 mph53%29.89 "HgN/A
5:00 PM45 °FQuite cool.5 mph53%29.89 "HgN/A
4:30 PM46 °FCool.6 mph50%29.89 "HgN/A
4:00 PM48 °FCool.5 mph43%29.89 "HgN/A
3:30 PM46 °FCool.7 mph50%29.89 "HgN/A
3:00 PM48 °FCool.No wind46%29.89 "HgN/A
2:30 PM48 °FCool.3 mph46%29.89 "HgN/A
2:00 PM48 °FCool.3 mph43%29.89 "HgN/A
1:30 PM46 °FCool.2 mph53%29.89 "HgN/A
1:00 PM46 °FCool.2 mph53%29.89 "HgN/A
12:30 PM45 °FQuite cool.5 mph57%29.89 "HgN/A
12:00 PM43 °FQuite cool.5 mph61%29.89 "HgN/A
11:30 AM43 °FQuite cool.5 mph61%29.89 "HgN/A
11:00 AM39 °FChilly.6 mph65%29.92 "HgN/A
10:30 AM39 °FChilly.9 mph65%29.89 "HgN/A
10:00 AM39 °FChilly.10 mph65%29.89 "HgN/A
9:30 AM37 °FChilly.7 mph70%29.89 "HgN/A
9:00 AM36 °FChilly.7 mph70%29.89 "HgN/A
Weather by CustomWeather, © 2016

See weather overviewHow to use our weather pages